TimeEST,TemperatureF,Dew PointF,Humidity,Sea Level PressureIn,VisibilityMPH,Wind Direction,Wind SpeedMPH,Gust SpeedMPH,PrecipitationIn,Events,Conditions,WindDirDegrees,DateUTC
12:15 AM,30.4,22.5,72,30.13,10.0,WNW,4.6,-,N/A,,Overcast,300,2012-12-12 05:15:00
12:35 AM,30.2,22.1,72,30.14,10.0,West,5.8,-,N/A,,Overcast,280,2012-12-12 05:35:00
12:55 AM,30.2,22.5,73,30.14,10.0,Calm,Calm,-,N/A,,Overcast,0,2012-12-12 05:55:00
1:15 AM,30.2,22.1,72,30.15,10.0,West,4.6,-,N/A,,Overcast,280,2012-12-12 06:15:00
1:35 AM,30.2,22.1,72,30.16,10.0,WNW,5.8,-,N/A,,Overcast,300,2012-12-12 06:35:00
1:55 AM,30.2,21.7,71,30.17,10.0,NW,4.6,-,N/A,,Overcast,320,2012-12-12 06:55:00
2:15 AM,30.0,21.7,71,30.18,10.0,NNW,4.6,-,N/A,,Overcast,340,2012-12-12 07:15:00
2:35 AM,29.8,20.3,68,30.18,10.0,NW,9.2,-,N/A,,Mostly Cloudy,320,2012-12-12 07:35:00
2:55 AM,29.8,20.3,68,30.18,10.0,WNW,6.9,16.1,N/A,,Scattered Clouds,290,2012-12-12 07:55:00
3:15 AM,29.7,19.9,67,30.19,10.0,WNW,11.5,16.1,N/A,,Clear,290,2012-12-12 08:15:00
3:35 AM,29.1,20.1,69,30.19,10.0,WNW,5.8,-,N/A,,Clear,290,2012-12-12 08:35:00
3:55 AM,28.6,19.9,70,30.19,10.0,WNW,6.9,-,N/A,,Clear,290,2012-12-12 08:55:00
4:15 AM,28.4,19.4,69,30.20,10.0,WNW,4.6,-,N/A,,Clear,300,2012-12-12 09:15:00
4:35 AM,28.2,19.8,71,30.21,10.0,Calm,Calm,-,N/A,,Scattered Clouds,0,2012-12-12 09:35:00
4:55 AM,27.5,19.9,73,30.21,10.0,Calm,Calm,-,N/A,,Clear,0,2012-12-12 09:55:00
5:15 AM,27.5,20.1,74,30.23,10.0,Calm,Calm,-,N/A,,Scattered Clouds,0,2012-12-12 10:15:00
5:35 AM,27.0,21.4,79,30.24,10.0,Calm,Calm,-,N/A,,Mostly Cloudy,0,2012-12-12 10:35:00
5:55 AM,27.1,20.5,76,30.25,10.0,Calm,Calm,-,N/A,,Overcast,0,2012-12-12 10:55:00
6:15 AM,26.2,20.1,78,30.26,10.0,WNW,3.5,-,N/A,,Mostly Cloudy,300,2012-12-12 11:15:00
6:35 AM,25.7,21.2,83,30.27,10.0,WNW,3.5,-,N/A,,Scattered Clouds,290,2012-12-12 11:35:00
6:55 AM,24.6,20.1,83,30.28,10.0,NW,3.5,-,N/A,,Clear,320,2012-12-12 11:55:00
7:15 AM,26.1,19.9,78,30.28,10.0,NNW,3.5,-,N/A,,Clear,330,2012-12-12 12:15:00
7:35 AM,25.5,19.8,79,30.29,10.0,NNW,3.5,-,N/A,,Clear,330,2012-12-12 12:35:00
7:55 AM,25.3,20.1,81,30.29,10.0,NW,5.8,-,N/A,,Clear,310,2012-12-12 12:55:00
8:15 AM,26.1,20.5,79,30.29,10.0,Calm,Calm,-,N/A,,Clear,0,2012-12-12 13:15:00
8:35 AM,27.0,20.8,78,30.30,10.0,Calm,Calm,-,N/A,,Clear,0,2012-12-12 13:35:00
8:55 AM,28.0,21.2,76,30.30,10.0,NE,4.6,-,N/A,,Clear,40,2012-12-12 13:55:00
9:15 AM,29.3,20.8,71,30.31,10.0,Calm,Calm,-,N/A,,Clear,0,2012-12-12 14:15:00
9:35 AM,31.1,20.5,65,30.32,10.0,West,6.9,-,N/A,,Clear,280,2012-12-12 14:35:00
9:55 AM,31.8,20.5,63,30.32,10.0,West,8.1,-,N/A,,Clear,270,2012-12-12 14:55:00
10:15 AM,32.0,20.1,62,30.32,10.0,WSW,10.4,-,N/A,,Clear,250,2012-12-12 15:15:00
10:35 AM,32.4,20.7,62,30.31,10.0,West,8.1,-,N/A,,Clear,260,2012-12-12 15:35:00
10:55 AM,33.1,20.5,60,30.30,10.0,West,8.1,-,N/A,,Clear,260,2012-12-12 15:55:00
11:15 AM,34.0,20.7,58,30.29,10.0,West,9.2,-,N/A,,Clear,260,2012-12-12 16:15:00
11:35 AM,34.7,20.7,57,30.29,10.0,West,10.4,-,N/A,,Clear,260,2012-12-12 16:35:00
11:55 AM,35.8,20.3,53,30.28,10.0,West,6.9,-,N/A,,Clear,260,2012-12-12 16:55:00
12:15 PM,-9999,-9999,N/A,-9999,-9999.0,North,-9999.0,-,N/A,,Unknown,0,2012-12-12 17:15:00
12:35 PM,-9999,-9999,N/A,-9999,-9999.0,North,-9999.0,-,N/A,,Unknown,0,2012-12-12 17:35:00
12:55 PM,38.3,16.3,41,30.27,10.0,NW,8.1,-,N/A,,Unknown,310,2012-12-12 17:55:00
1:15 PM,38.3,16.3,41,30.27,10.0,WNW,6.9,-,N/A,,Clear,290,2012-12-12 18:15:00
1:35 PM,38.3,18.5,45,30.27,10.0,West,6.9,-,N/A,,Clear,280,2012-12-12 18:35:00
1:55 PM,38.5,19.9,47,30.28,10.0,West,6.9,-,N/A,,Clear,280,2012-12-12 18:55:00
2:15 PM,37.2,20.7,51,30.28,10.0,West,5.8,-,N/A,,Scattered Clouds,280,2012-12-12 19:15:00
2:35 PM,37.4,21.6,53,30.29,10.0,West,5.8,-,N/A,,Mostly Cloudy,270,2012-12-12 19:35:00
2:55 PM,37.4,21.9,54,30.30,10.0,WNW,3.5,-,N/A,,Overcast,300,2012-12-12 19:55:00
3:15 PM,37.0,22.1,55,30.31,10.0,Calm,Calm,-,N/A,,Overcast,0,2012-12-12 20:15:00
3:35 PM,36.5,22.6,57,30.32,10.0,Calm,Calm,-,N/A,,Overcast,0,2012-12-12 20:35:00
3:55 PM,36.0,22.6,58,30.32,10.0,WSW,3.5,-,N/A,,Overcast,250,2012-12-12 20:55:00
4:15 PM,33.6,23.0,65,30.33,10.0,Calm,Calm,-,N/A,,Scattered Clouds,0,2012-12-12 21:15:00
4:35 PM,31.3,23.0,71,30.34,10.0,Calm,Calm,-,N/A,,Clear,0,2012-12-12 21:35:00
4:55 PM,30.0,25.5,83,30.34,10.0,Calm,Calm,-,N/A,,Scattered Clouds,0,2012-12-12 21:55:00
5:15 PM,28.9,24.6,84,30.34,10.0,Calm,Calm,-,N/A,,Scattered Clouds,0,2012-12-12 22:15:00
5:35 PM,28.4,25.3,88,30.35,10.0,Calm,Calm,-,N/A,,Clear,0,2012-12-12 22:35:00
5:55 PM,27.9,24.3,86,30.35,10.0,Calm,Calm,-,N/A,,Clear,0,2012-12-12 22:55:00
6:15 PM,27.1,24.1,88,30.35,10.0,Calm,Calm,-,N/A,,Clear,0,2012-12-12 23:15:00
6:55 PM,26.4,23.9,90,30.35,10.0,Calm,Calm,-,N/A,,Clear,0,2012-12-12 23:55:00
7:15 PM,25.7,23.4,91,30.35,7.0,Calm,Calm,-,N/A,,Clear,0,2012-12-13 00:15:00
7:35 PM,25.0,23.2,93,30.36,10.0,Calm,Calm,-,N/A,,Clear,0,2012-12-13 00:35:00
7:55 PM,24.8,23.9,96,30.37,10.0,Calm,Calm,-,N/A,,Clear,0,2012-12-13 00:55:00
8:15 PM,24.6,23.5,96,30.38,10.0,Calm,Calm,-,N/A,,Clear,0,2012-12-13 01:15:00
8:35 PM,24.4,23.5,96,30.38,10.0,Calm,Calm,-,N/A,,Clear,0,2012-12-13 01:35:00
8:55 PM,23.9,23.0,96,30.37,10.0,Calm,Calm,-,N/A,,Clear,0,2012-12-13 01:55:00
9:15 PM,23.4,22.6,97,30.38,10.0,Calm,Calm,-,N/A,,Scattered Clouds,0,2012-12-13 02:15:00
9:35 PM,23.5,23.0,98,30.38,10.0,Calm,Calm,-,N/A,,Scattered Clouds,0,2012-12-13 02:35:00
9:55 PM,22.8,22.1,97,30.38,10.0,Calm,Calm,-,N/A,,Clear,0,2012-12-13 02:55:00
10:15 PM,22.6,21.9,97,30.38,10.0,Calm,Calm,-,N/A,,Clear,0,2012-12-13 03:15:00
10:35 PM,22.1,21.7,99,30.38,7.0,Calm,Calm,-,N/A,,Clear,0,2012-12-13 03:35:00
10:55 PM,22.1,21.2,96,30.38,10.0,Calm,Calm,-,N/A,,Clear,0,2012-12-13 03:55:00
11:15 PM,22.1,21.4,97,30.38,10.0,Calm,Calm,-,N/A,,Clear,0,2012-12-13 04:15:00
11:35 PM,21.2,20.3,96,30.39,10.0,Calm,Calm,-,N/A,,Clear,0,2012-12-13 04:35:00
11:55 PM,21.2,20.3,96,30.39,10.0,Calm,Calm,-,N/A,,Clear,0,2012-12-13 04:55:00